Weather History for Monett, MO

Change the Weather History Date:

Saturday, April 20, 2013

  Actual Average (KJLN) Record (KJLN)
Temperature  
Mean Temperature 48 °F 60 °F  
Max Temperature 62 °F 72 °F 92 °F (1987)
Min Temperature 33 °F 48 °F 29 °F (1953)
Degree Days  
Heating Degree Days 18 7  
Month to date heating degree days 186  
Since 1 July heating degree days 3948  
Cooling Degree Days 0 2  
Month to date cooling degree days 24  
Year to date cooling degree days 34  
Moisture  
Dew Point 33 °F    
Average Humidity 54    
Maximum Humidity 87    
Minimum Humidity 32    
Precipitation  
Precipitation 0.00 in 0.16 in 2.48 in (1966)
Month to date precipitation 2.70  
Year to date precipitation 10.47  
Sea Level Pressure  
Sea Level Pressure 30.14 in    
Wind  
Wind Speed 5 mph (SE)    
Max Wind Speed 10 mph    
Max Gust Speed 9 mph    
Visibility 10 miles    
Events      
T = Trace of Precipitation, MM = Missing Value Source: NWS Daily Summary

Daily Weather History Graph

Daily Weather History Graph

Search for Another Location

Airport:

Trip Planner

Search our weather history database for the weather conditions in past years. The results will help you decide how hot, cold, wet, or windy it might be!

Date:

Astronomy

Apr. 20, 2013 Rise Set
Actual Time 6:34 AM CDT 7:55 PM CDT
Civil Twilight 6:07 AM CDT 8:22 PM CDT
Nautical Twilight 5:35 AM CDT 8:55 PM CDT
Astronomical Twilight 5:01 AM CDT 9:29 PM CDT
Moon 2:47 PM CDT (4/20) 3:16 AM CDT (4/20)
Length of Visible Light 14h 14m
Length of Day
13h 20m
Waxing Gibbous, 71% of the Moon is Illuminated
Apr 20
Waxing Gibbous
Apr 25
Full
May 2
Last Quarter
May 9
New
May 17
First Quarter

Hourly Weather History & Observations

Time (CDT) Temp. Windchill Dew Point Humidity Pressure Visibility Wind Dir Wind Speed Gust Speed Precip Events Conditions
12:15 AM 42.8 °F 40.1 °F 30.2 °F 61% 30.08 in 10.0 mi SE 4.6 mph - N/A   Clear
12:35 AM 37.4 °F 32.8 °F 32.0 °F 81% 30.09 in 10.0 mi SSE 5.8 mph - N/A   Clear
12:55 AM 41.0 °F 37.1 °F 30.2 °F 65% 30.09 in 10.0 mi South 5.8 mph - N/A   Clear
1:15 AM 41.0 °F 38.0 °F 30.2 °F 65% 30.09 in 10.0 mi South 4.6 mph - N/A   Clear
1:35 AM 41.0 °F 38.0 °F 30.2 °F 65% 30.09 in 10.0 mi South 4.6 mph - N/A   Clear
1:55 AM 41.0 °F 39.0 °F 30.2 °F 65% 30.09 in 10.0 mi South 3.5 mph - N/A   Clear
2:15 AM 41.0 °F 38.0 °F 30.2 °F 65% 30.09 in 10.0 mi South 4.6 mph - N/A   Clear
2:35 AM 39.2 °F 35.9 °F 30.2 °F 70% 30.10 in 10.0 mi South 4.6 mph - N/A   Clear
2:55 AM 39.2 °F 37.0 °F 28.4 °F 65% 30.10 in 10.0 mi SSW 3.5 mph - N/A   Clear
3:15 AM 39.2 °F 37.0 °F 28.4 °F 65% 30.10 in 10.0 mi South 3.5 mph - N/A   Clear
3:35 AM 37.4 °F - 30.2 °F 75% 30.10 in 10.0 mi Calm Calm - N/A   Clear
3:55 AM 39.2 °F 37.0 °F 28.4 °F 65% 30.11 in 10.0 mi SSE 3.5 mph - N/A   Clear
4:15 AM 37.4 °F 33.8 °F 28.4 °F 70% 30.12 in 10.0 mi South 4.6 mph - N/A   Clear
4:35 AM 39.2 °F 37.0 °F 28.4 °F 65% 30.12 in 10.0 mi South 3.5 mph - N/A   Clear
4:55 AM 37.4 °F - 28.4 °F 70% 30.12 in 10.0 mi Calm Calm - N/A   Clear
5:15 AM 37.4 °F 34.9 °F 28.4 °F 70% 30.13 in 10.0 mi South 3.5 mph - N/A   Clear
5:35 AM 35.6 °F - 30.2 °F 81% 30.13 in 10.0 mi Calm Calm - N/A   Clear
5:55 AM 35.6 °F - 30.2 °F 81% 30.13 in 10.0 mi Calm Calm - N/A   Clear
6:15 AM 33.8 °F 29.6 °F 30.2 °F 87% 30.14 in 10.0 mi NE 4.6 mph - N/A   Clear
6:35 AM 35.6 °F 29.9 °F 30.2 °F 81% 30.15 in 10.0 mi ENE 6.9 mph - N/A   Clear
6:55 AM 35.6 °F 31.7 °F 30.2 °F 81% 30.15 in 10.0 mi NE 4.6 mph - N/A   Clear
7:15 AM 37.4 °F 32.8 °F 30.2 °F 75% 30.16 in 10.0 mi ENE 5.8 mph - N/A   Clear
7:35 AM 37.4 °F 33.8 °F 32.0 °F 81% 30.16 in 10.0 mi ENE 4.6 mph - N/A   Clear
7:55 AM 41.0 °F 37.1 °F 32.0 °F 70% 30.17 in 10.0 mi ENE 5.8 mph - N/A   Clear
8:15 AM 42.8 °F 39.3 °F 32.0 °F 66% 30.17 in 10.0 mi ENE 5.8 mph - N/A   Clear
8:35 AM 44.6 °F 42.2 °F 33.8 °F 66% 30.18 in 10.0 mi East 4.6 mph - N/A   Clear
8:55 AM 46.4 °F 44.3 °F 33.8 °F 62% 30.18 in 10.0 mi East 4.6 mph - N/A   Clear
9:15 AM 46.4 °F 43.5 °F 35.6 °F 66% 30.18 in 10.0 mi East 5.8 mph - N/A   Clear
9:35 AM 48.2 °F - 35.6 °F 62% 30.19 in 10.0 mi SE 5.8 mph - N/A   Clear
9:55 AM 48.2 °F - 33.8 °F 58% 30.20 in 10.0 mi SE 6.9 mph - N/A   Clear
10:15 AM 50.0 °F - 35.6 °F 58% 30.20 in 10.0 mi SE 9.2 mph - N/A   Clear
10:35 AM 51.8 °F - 35.6 °F 54% 30.20 in 10.0 mi ESE 6.9 mph - N/A   Clear
10:55 AM 51.8 °F - 33.8 °F 50% 30.20 in 10.0 mi SE 9.2 mph - N/A   Clear
11:15 AM 53.6 °F - 33.8 °F 47% 30.20 in 10.0 mi SE 8.1 mph - N/A   Clear
11:35 AM 55.4 °F - 35.6 °F 47% 30.20 in 10.0 mi ESE 6.9 mph - N/A   Clear
11:55 AM 55.4 °F - 35.6 °F 47% 30.19 in 10.0 mi SE 8.1 mph - N/A   Clear
12:15 PM 57.2 °F - 35.6 °F 44% 30.18 in 10.0 mi ESE 4.6 mph - N/A   Clear
12:35 PM 59.0 °F - 35.6 °F 42% 30.18 in 10.0 mi SE 6.9 mph - N/A   Clear
12:55 PM 60.8 °F - 35.6 °F 39% 30.17 in 10.0 mi South 8.1 mph - N/A   Clear
1:15 PM 60.8 °F - 33.8 °F 36% 30.16 in 10.0 mi South 5.8 mph - N/A   Clear
1:35 PM 60.8 °F - 35.6 °F 39% 30.16 in 10.0 mi SSW 6.9 mph - N/A   Clear
1:55 PM 62.6 °F - 35.6 °F 37% 30.15 in 10.0 mi SW 6.9 mph - N/A   Clear
2:15 PM 62.6 °F - 33.8 °F 34% 30.15 in 10.0 mi SSW 4.6 mph - N/A   Clear
2:35 PM 62.6 °F - 33.8 °F 34% 30.15 in 10.0 mi SSW 10.4 mph - N/A   Clear
2:55 PM 62.6 °F - 32.0 °F 32% 30.14 in 10.0 mi WSW 5.8 mph 9.2 mph N/A   Clear
3:15 PM 62.6 °F - 32.0 °F 32% 30.13 in 10.0 mi SW 3.5 mph - N/A   Clear
3:35 PM 62.6 °F - 32.0 °F 32% 30.13 in 10.0 mi Calm Calm - N/A   Clear
3:55 PM 62.6 °F - 33.8 °F 34% 30.12 in 10.0 mi South 6.9 mph - N/A   Clear
4:15 PM 62.6 °F - 32.0 °F 32% 30.11 in 10.0 mi SSE 3.5 mph - N/A   Clear
4:35 PM 62.6 °F - 35.6 °F 37% 30.10 in 10.0 mi SE 6.9 mph - N/A   Scattered Clouds
4:55 PM 62.6 °F - 35.6 °F 37% 30.10 in 10.0 mi SSE 8.1 mph - N/A   Mostly Cloudy
5:15 PM 62.6 °F - 35.6 °F 37% 30.10 in 10.0 mi SE 6.9 mph - N/A   Scattered Clouds
5:35 PM 60.8 °F - 35.6 °F 39% 30.10 in 10.0 mi SE 5.8 mph - N/A   Scattered Clouds
5:55 PM 60.8 °F - 35.6 °F 39% 30.10 in 10.0 mi SE 4.6 mph - N/A   Scattered Clouds
6:15 PM 60.8 °F - 37.4 °F 42% 30.09 in 10.0 mi ESE 4.6 mph - N/A   Clear
6:35 PM 60.8 °F - 37.4 °F 42% 30.09 in 10.0 mi Calm Calm - N/A   Clear
6:55 PM 60.8 °F - 35.6 °F 39% 30.09 in 10.0 mi East 4.6 mph - N/A   Clear
7:15 PM 60.8 °F - 33.8 °F 36% 30.10 in 10.0 mi East 4.6 mph - N/A   Clear
7:35 PM 60.8 °F - 33.8 °F 36% 30.11 in 10.0 mi East 5.8 mph - N/A   Clear
7:55 PM 59.0 °F - 35.6 °F 42% 30.12 in 10.0 mi East 6.9 mph - N/A   Clear
8:15 PM 59.0 °F - 35.6 °F 42% 30.13 in 10.0 mi ESE 6.9 mph - N/A   Clear
8:35 PM 55.4 °F - 35.6 °F 47% 30.14 in 10.0 mi ESE 8.1 mph - N/A   Clear
8:55 PM 55.4 °F - 35.6 °F 47% 30.15 in 10.0 mi ESE 8.1 mph - N/A   Clear
9:15 PM 55.4 °F - 35.6 °F 47% 30.16 in 10.0 mi ESE 8.1 mph - N/A   Clear
9:35 PM 53.6 °F - 37.4 °F 54% 30.17 in 10.0 mi ESE 6.9 mph - N/A   Clear
9:55 PM 53.6 °F - 35.6 °F 51% 30.17 in 10.0 mi ESE 8.1 mph - N/A   Clear
10:15 PM 51.8 °F - 35.6 °F 54% 30.18 in 10.0 mi ESE 8.1 mph - N/A   Clear
10:35 PM 51.8 °F - 35.6 °F 54% 30.18 in 10.0 mi ESE 9.2 mph - N/A   Clear
10:55 PM 51.8 °F - 35.6 °F 54% 30.18 in 10.0 mi ESE 9.2 mph - N/A   Clear
11:15 PM 51.8 °F - 35.6 °F 54% 30.17 in 10.0 mi ESE 10.4 mph - N/A   Clear
11:35 PM 51.8 °F - 35.6 °F 54% 30.17 in 10.0 mi ESE 10.4 mph - N/A   Clear
11:55 PM 51.8 °F - 35.6 °F 54% 30.18 in 10.0 mi ESE 8.1 mph - N/A   Clear